This demonstration page uses our WeatherBlox Daily Observations layout. Learn more.

Left ArrowRight Arrow

Hourly Observations for December 9, 2019

Temp ( °F °C ) Dew Point ( °F °C ) Humidity (%) Winds ( mph kmh ) Pressure ( in mb ) Visibility ( mi km ) Precip ( " mm )
12:53 am 00:53 Clear 43 6.1 40 4.4 89 89 NE 3 6 30.11 1020 10 16 0.00 0.00
1:53 am 01:53 Clear 45 7.2 42 5.6 90 90 NW 6 9 30.12 1020 10 16 0.00 0.00
2:53 am 02:53 Clear 44 6.7 41 5 89 89 NW 6 9 30.11 1020 10 16 0.00 0.00
3:53 am 03:53 Clear 41 5 37 2.8 86 86 VRB 3 6 30.10 1019 10 16 0.00 0.00
4:53 am 04:53 Clear 40 4.4 37 2.8 89 89 Calm 30.12 1020 10 16 0.00 0.00
5:53 am 05:53 Clear 38 3.3 36 2.2 93 93 ENE 3 6 30.12 1020 10 16 0.00 0.00
6:53 am 06:53 Clear with Patchy Fog 39 3.9 37 2.8 93 93 NNE 3 6 30.13 1020 10 16 0.00 0.00
7:53 am 07:53 Sunny 40 4.4 36 2.2 86 86 N 3 6 30.14 1021 10 16 0.00 0.00
8:53 am 08:53 Sunny 42 5.6 40 4.4 92 92 SE 3 6 30.16 1022 10 16 0.00 0.00
9:53 am 09:53 Sunny 47 8.3 42 5.6 83 83 Calm 30.19 1022 10 16 0.00 0.00
10:53 am 10:53 Sunny 52 11.1 44 6.7 75 75 Calm 30.19 1022 10 16 0.00 0.00
11:53 am 11:53 Sunny 57 13.9 43 6.1 60 60 Calm 30.15 1021 10 16 0.00 0.00
12:53 pm 12:53 Sunny 60 15.6 42 5.6 52 52 E 5 7 30.13 1020 10 16 0.00 0.00
1:53 pm 13:53 Sunny 61 16.1 40 4.4 46 46 ESE 6 9 30.12 1020 10 16 0.00 0.00
2:53 pm 14:53 Sunny 60 15.6 42 5.6 52 52 SE 8 13 30.12 1020 10 16 0.00 0.00
3:53 pm 15:53 Sunny 57 13.9 41 5 55 55 SSE 6 9 30.14 1021 10 16 0.00 0.00
4:53 pm 16:53 Clear 53 11.7 42 5.6 66 66 Calm 30.15 1021 10 16 0.00 0.00
5:53 pm 17:53 Clear 48 8.9 42 5.6 80 80 Calm 30.16 1021 10 16 0.00 0.00
6:53 pm 18:53 Clear 47 8.3 41 5 80 80 NNE 5 7 30.18 1022 10 16 0.00 0.00
7:53 pm 19:53 Clear 43 6.1 40 4.4 89 89 WNW 3 6 30.19 1022 10 16 0.00 0.00
8:53 pm 20:53 Clear 42 5.6 39 3.9 89 89 NNE 5 7 30.21 1023 9 14 0.00 0.00
9:53 pm 21:53 Clear 41 5 39 3.9 93 93 Calm 30.20 1023 8 13 0.00 0.00
10:53 pm 22:53 Clear 43 6.1 40 4.4 89 89 NW 3 6 30.20 1023 10 16 0.00 0.00
11:53 pm 23:53 Clear 40 4.4 38 3.3 93 93 Calm 30.21 1023 9 14 0.00 0.00

Powered by AerisWeather